User: anonymous
Location: Camp Creek
(33.9000°N, 111.8167°W)
Time: 02:26:37
(UTC-07:00)
Language:

Cosmos 2322 Rocket - Orbit

View from above orbital plane
View from above orbital plane
View from above satellite
View from above satellite

Ground track
Ground track

The orbit data is extracted from the following two-line orbital elements,

1 23705U 95058B   14258.40740231  .00000213  00000-0  13424-3 0  3363
2 23705 071.0254 339.0928 0011922 020.9559 339.2050 14.15020284974905
Epoch (UTC): 15 September 2014 09:46:39
Eccentricity: 0.0011922
inclination: 71.0254°
perigee height: 833 km
apogee height: 851 km
right ascension of ascending node: 339.0928°
argument of perigee: 20.9559°
revolutions per day: 14.15020284
mean anomaly at epoch: 339.2050°
orbit number at epoch: 97490

The dashed part of the orbit path shows where the satellite is in the earth's shadow,  

DLR